Location: Bainbridge
(30.9040°N, 84.5757°W)
Time: 06:25:42
(UTC+00:00)

BlueWalker 3 - Visible Passes

Search period start: 12 October 2024 00:00
Search period end: 22 October 2024 00:00
Orbit: 472 x 485 km, 53.2° (Epoch: 11 October)

Date Brightness Start Highest point End Pass type
(mag) Time Alt. Az. Time Alt. Az. Time Alt. Az.
19 Oct 4.5 11:17:06 10° N 11:19:21 15° NE 11:21:35 10° ENE visible
20 Oct 4.5 10:48:29 10° N 10:50:22 13° NE 10:52:15 10° ENE visible
21 Oct 4.6 10:19:53 10° N 10:21:20 12° NE 10:22:46 10° ENE visible
